This demonstration page uses our WeatherBlox Daily Observations layout. Learn more.

Left ArrowRight Arrow

47.50024, -111.30081

Hourly Observations for June 10, 2020

Temp ( °F °C ) Dew Point ( °F °C ) Humidity (%) Winds ( mph kmh ) Pressure ( in mb ) Visibility ( mi km ) Precip ( " mm )
12:53 am 00:53 Clear 47 8.3 38 3.3 71 71 SW 12 19 30.08 1019 10 16 0.00 0.00
1:53 am 01:53 Clear 48 8.9 37 2.8 66 66 SW 14 22 30.08 1019 10 16 0.00 0.00
2:53 am 02:53 Clear 46 7.8 38 3.3 73 73 SW 10 17 30.09 1019 10 16 0.00 0.00
3:53 am 03:53 Mostly Cloudy 48 8.9 39 3.9 71 71 SW 12 19 30.09 1019 10 16 0.00 0.00
4:53 am 04:53 Clear 50 10 39 3.9 66 66 SW 15 24 30.07 1018 10 16 0.00 0.00
5:53 am 05:53 Sunny 49 9.4 40 4.4 71 71 SW 12 19 30.09 1019 10 16 0.00 0.00
6:53 am 06:53 Sunny 52 11.1 42 5.6 69 69 WSW 15 24 30.09 1019 10 16 0.00 0.00
7:53 am 07:53 Sunny 57 13.9 42 5.6 58 58 SW 17 28 30.08 1019 10 16 0.00 0.00
8:53 am 08:53 Sunny 60 15.6 41 5 50 50 WSW 21 33 30.08 1019 10 16 0.00 0.00
9:53 am 09:53 Sunny 63 17.2 39 3.9 41 41 W 20 31 30.09 1019 10 16 0.00 0.00
10:53 am 10:53 Sunny 65 18.3 39 3.9 39 39 W 23 37 30.09 1019 10 16 0.00 0.00
11:53 am 11:53 Partly Cloudy 68 20 38 3.3 33 33 WSW 20 31 30.08 1019 10 16 0.00 0.00
12:53 pm 12:53 Mostly Cloudy 68 20 37 2.8 32 32 W 21 33 30.08 1019 10 16 0.00 0.00
1:53 pm 13:53 Mostly Cloudy 70 21.1 41 5 35 35 WSW 20 31 30.08 1019 10 16 0.00 0.00
2:53 pm 14:53 Mostly Cloudy 68 20 41 5 38 38 SW 16 26 30.09 1019 10 16 0.00 0.00
3:53 pm 15:53 Sunny 72 22.2 39 3.9 30 30 WSW 17 28 30.06 1018 10 16 0.00 0.00
4:53 pm 16:53 Partly Cloudy 72 22.2 39 3.9 30 30 W 15 24 30.06 1018 10 16 0.00 0.00
5:53 pm 17:53 Partly Cloudy 70 21.1 38 3.3 31 31 WNW 14 22 30.06 1018 10 16 0.00 0.00
6:53 pm 18:53 Mostly Sunny 71 21.7 39 3.9 31 31 W 9 15 30.04 1017 10 16 0.00 0.00
7:53 pm 19:53 Sunny 69 20.6 38 3.3 32 32 WNW 10 17 30.04 1017 10 16 0.00 0.00
8:53 pm 20:53 Sunny 61 16.1 43 6.1 52 52 W 7 11 30.05 1018 10 16 0.00 0.00
9:53 pm 21:53 Clear 52 11.1 41 5 66 66 WSW 7 11 30.09 1019 10 16 0.00 0.00
10:53 pm 22:53 Clear 53 11.7 42 5.6 66 66 SW 7 11 30.10 1019 10 16 0.00 0.00
11:53 pm 23:53 Clear 53 11.7 40 4.4 61 61 WSW 3 6 30.09 1019 10 16 0.00 0.00

Powered by AerisWeather